Regional Weather Roundup
Issued by NWS

Home | Current Version | Previous Version | Graphics & Text | Print | Product List | Glossary On
Versions: 1 2 3 4 5 6 7 8 9 10 11 12 13 14 15 16 17 18 19 20 21 22 23 24 25 26 27 28 29 30 31 32 33 34 35 36 37 38 39 40 41 42 43 44 45 46 47 48 49 50
096
ASUS44 KLIX 212010
RWRLA
LOUISIANA WEATHER ROUNDUP
NATIONAL WEATHER SERVICE NEW ORLEANS LA
300 PM CDT TUE OCT 21 2014

NOTE: "FAIR" INDICATES FEW OR NO CLOUDS BELOW 12,000 FEET WITH NO
      SIGNIFICANT WEATHER AND/OR OBSTRUCTIONS TO VISIBILITY.
      SKY/WX - SKY CONDITION AND SIGNIFICANT WEATHER.
      TMP - AIR TEMPERATURE.    DP   - DEWPOINT TEMPERATURE.
      RH  - RELATIVE HUMIDITY.  PRES - PRESSURE.
      HX  - HEAT INDEX.         WCI  - WIND CHILL INDEX.

*  THESE STATIONS ARE NOT NWS OR FAA STATIONS AND ARE NOT UNDER
   NWS QUALITY CONTROL.

LAZ040-048-061>063-065-066-069-212100-
SOUTHEAST LOUISIANA

CITY           SKY/WX    TMP DP  RH WIND       PRES   REMARKS
N.O. AUDUBON     N/A     80  56  43 MISG        N/A
N.O. INTL ARPT SUNNY     78  53  41 N6        30.00F
N.O. LAKEFRONT SUNNY     79  55  43 NW5       30.00F
N.O. DOWNTOWN* FAIR      79  52  38 E3        30.00S
SLIDELL        SUNNY     81  54  39 NE8       29.98F
BATON ROUGE    SUNNY     81  54  39 NE5       30.00F
BOOTHVILLE     SUNNY     76  59  55 NE9       29.99F
BELLE CHASSE   SUNNY     79  50  36 E8        29.99F
BOGALUSA*        N/A     82  50  32 NE9       30.00F
NEW ROADS*     FAIR      79  56  44 N8        30.00F
GONZALES*      FAIR      81  56  41 NE5       29.99S
HAMMOND*       SUNNY     84  50  30 N5        30.00F
HOUMA*         SUNNY     81  54  39 NE9       29.98F
PORT FOURCHON* CLEAR     77  57  50 E13       30.02F

$$

LAZ041-044-053-054-212100-
SOUTHWEST LOUISIANA

CITY           SKY/WX    TMP DP  RH WIND       PRES   REMARKS
LAKE CHARLES   SUNNY     80  55  42 NE12      30.00F
LAFAYETTE      SUNNY     81  55  40 N12       30.00F
PATTERSON      SUNNY     81  55  41 NE9       30.01S
SALT POINT       N/A     82  57  42 VRB5      29.97F
NEW IBERIA     SUNNY     82  56  40 NE12      30.00F
CHENAULT AIRPK NOT AVBL

$$

LAZ027-028-212100-
CENTRAL LOUISIANA

CITY           SKY/WX    TMP DP  RH WIND       PRES   REMARKS
FORT POLK      SUNNY     79  61  53 N9        30.01F
ALEXANDRIA INT SUNNY     81  60  48 NE7       30.00F
ALEXANDRIA     SUNNY     79  61  53 E8        30.02F

$$

LAZ001-002-212100-
NORTHWEST LOUISIANA

CITY           SKY/WX    TMP DP  RH WIND       PRES   REMARKS
SHREVEPORT     MOSUNNY   81  60  48 VRB5      30.03F
BARKSDALE AFB  SUNNY     81  60  47 N1        30.04F
DTN SHREVEPORT SUNNY     81  60  48 VRB5      30.04F

$$

LAZ014-016-212100-
NORTHEAST LOUISIANA

CITY           SKY/WX    TMP DP  RH WIND       PRES   REMARKS
MONROE         SUNNY     79  60  52 NW7       30.04F
TALLULAH       SUNNY     79  58  48 VRB7      30.03F

$$




USA.gov is the U.S. government's official web portal to all federal, state and local government web resources and services.